This is the latest recevied weather packets stored in our database for station/object N9XRG. If no packets are shown the sender has not sent any weather packets the latest 10 day(s).
| Time | Temp. | Humidity | Pressure | Rain* | Wind** | Luminosity | Snow |
|---|---|---|---|---|---|---|---|
| 1777993409 | 12.78° C | 67% | 1008.3 hPa | 0 mm | - | 121 W/m² | - |
| 1777993108 | 12.78° C | 65% | 1008.5 hPa | 0 mm | - | 151 W/m² | - |
| 1777992807 | 12.78° C | 68% | 1008.7 hPa | 0 mm | - | 139 W/m² | - |
| 1777992504 | 12.78° C | 70% | 1008.6 hPa | 0 mm | - | 158 W/m² | - |
| 1777992203 | 12.78° C | 75% | 1008.4 hPa | 0 mm | - | 182 W/m² | - |
| 1777991899 | 12.78° C | 75% | 1008.4 hPa | 0 mm | - | 90 W/m² | - |
| 1777991597 | 12.78° C | 76% | 1008.3 hPa | 0 mm | - | 90 W/m² | - |
| 1777991294 | 13.33° C | 77% | 1008.5 hPa | 0 mm | - | 65 W/m² | - |
| 1777990992 | 13.33° C | 77% | 1008.3 hPa | 0 mm | - | 75 W/m² | - |
| 1777990689 | 13.33° C | 76% | 1008.2 hPa | 0 mm | - | 96 W/m² | - |
| 1777990386 | 13.89° C | 79% | 1007.9 hPa | 0 mm | - | 57 W/m² | - |
| 1777989778 | 14.44° C | 83% | 1007.9 hPa | 0 mm | - | 88 W/m² | - |
| 1777989475 | 14.44° C | 83% | 1007.9 hPa | 0 mm | - | 39 W/m² | - |
| 1777989172 | 14.44° C | 83% | 1007.9 hPa | 0 mm | - | 83 W/m² | - |
| 1777988868 | 14.44° C | 84% | 1007.8 hPa | 0 mm | - | 119 W/m² | - |
| 1777988565 | 15° C | 84% | 1007.6 hPa | 0 mm | - | 38 W/m² | - |
| 1777988262 | 15° C | 85% | 1007.2 hPa | 0 mm | - | 87 W/m² | - |
| 1777987958 | 15° C | 83% | 1007.2 hPa | 0 mm | - | 102 W/m² | - |
| 1777987654 | 15.56° C | 83% | 1007.1 hPa | 0 mm | - | 113 W/m² | - |
| 1777987352 | 15° C | 85% | 1006.8 hPa | 0 mm | - | 269 W/m² | - |
| 1777987049 | 15° C | 84% | 1006.6 hPa | 0 mm | - | 163 W/m² | - |
| 1777986746 | 15° C | 83% | 1006.4 hPa | 0 mm | - | 125 W/m² | - |
| 1777986444 | 15° C | 83% | 1006.2 hPa | 0 mm | - | 119 W/m² | - |
| 1777986142 | 15° C | 84% | 1006.2 hPa | 0 mm | - | 187 W/m² | - |
| 1777985838 | 15° C | 84% | 1006 hPa | 0 mm | - | 234 W/m² | - |
* Rain latest hour (hover to see other rain measurements)
** Current wind speed in m/s (hover to see current wind gust speed)